This is the latest recevied weather packets stored in our database for station/object SR4DIG-13. If no packets are shown the sender has not sent any weather packets the latest 10 day(s).
| Time | Temp. | Humidity | Pressure | Rain* | Wind** | Luminosity | Snow |
|---|---|---|---|---|---|---|---|
| 1777273298 | 8.89° C | 44% | 1018.6 hPa | 0.51 mm | - | - | - |
| 1777272997 | 8.33° C | 46% | 1018.7 hPa | 0.51 mm | - | - | - |
| 1777272696 | 8.33° C | 46% | 1018.7 hPa | 0.51 mm | - | - | - |
| 1777272395 | 7.78° C | 47% | 1018.6 hPa | 0.51 mm | - | - | - |
| 1777272094 | 6.67° C | 47% | 1018.7 hPa | 0.51 mm | - | - | - |
| 1777271473 | 6.67° C | 48% | 1018.8 hPa | 0.51 mm | - | - | - |
| 1777271172 | 6.67° C | 48% | 1018.7 hPa | 0.51 mm | - | - | - |
| 1777270872 | 6.11° C | 49% | 1018.8 hPa | 0.51 mm | - | - | - |
| 1777270571 | 5° C | 49% | 1018.7 hPa | 0.51 mm | - | - | - |
| 1777270270 | 5° C | 49% | 1018.6 hPa | 0.51 mm | - | - | - |
| 1777269969 | 4.44° C | 50% | 1018.8 hPa | 0.51 mm | - | - | - |
| 1777269668 | 4.44° C | 50% | 1018.7 hPa | 0.51 mm | - | - | - |
| 1777269367 | 4.44° C | 51% | 1018.8 hPa | 0.51 mm | - | - | - |
| 1777269066 | 3.89° C | 51% | 1018.8 hPa | 0.51 mm | - | - | - |
| 1777268765 | 3.89° C | 51% | 1018.7 hPa | 0.51 mm | - | - | - |
| 1777268465 | 3.33° C | 52% | 1018.7 hPa | 0.51 mm | - | - | - |
| 1777267860 | 2.78° C | 53% | 1018.7 hPa | 0.51 mm | - | - | - |
| 1777267559 | 2.78° C | 53% | 1018.8 hPa | 0.51 mm | - | - | - |
| 1777267258 | 2.78° C | 53% | 1018.9 hPa | 0.51 mm | - | - | - |
| 1777266957 | 2.22° C | 53% | 1019 hPa | 0.51 mm | - | - | - |
| 1777266656 | 2.22° C | 53% | 1019 hPa | 0.51 mm | - | - | - |
| 1777266355 | 2.22° C | 54% | 1018.9 hPa | 0.51 mm | - | - | - |
| 1777266055 | 2.22° C | 54% | 1018.9 hPa | 0.51 mm | - | - | - |
| 1777265753 | 1.67° C | 55% | 1019 hPa | 0.51 mm | - | - | - |
| 1777265452 | 1.67° C | 55% | 1019 hPa | 0.51 mm | - | - | - |
* Rain since midnight (hover to see other rain measurements)
** Current wind speed in m/s (hover to see current wind gust speed)